Flag for Germany Weather past 2 weeks in Stade, Lower Saxony, Germany

Now
61 °F

Light rain. Broken clouds.


Feels Like: 61 °F
Forecast: 53 / 61 °F
Wind: 14 mph from Southwest

Location: Hamburg-Finkenwerder

Current Time: Sep 4, 2015 at 1:01:46 PM

Latest Report: Sep 4, 2015 at 12:20 PM


Visibility: N/A

Pressure: 29.86 "Hg

Humidity: 68%

Dew point: 50 °F

Location of StadeLocation

Historic Weather in Stade — Graph

°F

Stade temperature yesterday

Maximum temperature yesterday: 66 °F (at 2:50 PM)
Minimum temperature yesterday: 48 °F (at 6:20 AM)
Average temperature yesterday: 60 °F

Past Weeks' High & Low Weather Summary

 TemperatureHumidityPressure
High82 °F (Aug 31, 3:50 PM)100% (Aug 21, 5:50 AM)30.27 "Hg (Aug 21, 5:50 AM)
Low48 °F (Sep 3, 6:20 AM)36% (Aug 21, 4:50 PM)29.56 "Hg (Aug 24, 7:50 PM)
Average66 °F75%29.92 "Hg
* Reported Aug 20 11:20 AM — Sep 4 11:50 AM, Stade, Weather by CustomWeather, © 2015

Note: Actual official high and low records may vary slightly from our data, if they occured in-between our weather recording intervals... More about our weather records

Advertising

Stade weather history for previous 24 hours

 ConditionsComfort  
Time TempWeatherWind HumidityBarometerVisibility
11:50 AM
Fri, Sep 4
61 °FPartly sunny.16 mph68%29.86 "HgN/A
11:20 AM59 °FPartly sunny.15 mph72%29.86 "HgN/A
10:50 AM59 °FBroken clouds.13 mph72%29.86 "HgN/A
10:20 AM57 °FPartly sunny.15 mph77%29.86 "HgN/A
9:50 AM57 °FPartly sunny.13 mph77%29.86 "HgN/A
9:20 AM55 °FClear.12 mph88%29.86 "Hg6 mi
8:50 AM54 °FClear.10 mph94%29.86 "Hg6 mi
8:20 AM54 °FClear.12 mph94%29.86 "Hg6 mi
7:50 AM52 °FClear.9 mph100%29.86 "Hg5 mi
7:20 AM50 °FClear.8 mph100%29.86 "Hg4 mi
6:50 AM50 °FClear.8 mph100%29.86 "Hg4 mi
6:20 AM50 °FClear.7 mph94%29.89 "Hg4 mi
8:20 PM
Thu, Sep 3
61 °FSprinkles. Broken clouds.9 mph68%29.89 "HgN/A
7:50 PM59 °FScattered showers. Clear.5 mph68%29.86 "HgN/A
7:20 PM61 °FPassing clouds.6 mph63%29.89 "HgN/A
6:50 PM63 °FSunny.6 mph56%29.89 "Hg10 mi
6:20 PM64 °FSunny.7 mph49%29.89 "Hg10 mi
5:20 PM66 °FPassing clouds.9 mph46%29.89 "HgN/A
4:50 PM64 °FPassing clouds.7 mph52%29.89 "HgN/A
4:20 PM66 °FPassing clouds.9 mph46%29.89 "HgN/A
3:50 PM66 °FScattered clouds.7 mph46%29.89 "HgN/A
3:20 PM64 °FScattered clouds.10 mph49%29.89 "HgN/A
2:50 PM66 °FPassing clouds.10 mph46%29.89 "HgN/A
2:20 PM64 °FScattered clouds.10 mph52%29.92 "HgN/A
1:50 PM63 °FScattered clouds.9 mph56%29.92 "HgN/A
1:20 PM64 °FPassing clouds.9 mph52%29.92 "HgN/A
Weather by CustomWeather, © 2015

See weather overviewHow to use our weather pages